Back to catalog

SDA_1669

AliveMilitaryPO
NORAD 65979·PAYLOAD·🇺🇸 United States

Launched Oct 15, 2025 from Vandenberg Space Force Base

Loading…

Next Passes (next 24 hours)

TLE

FreshSource: Space-Track

Epoch: Sep 14, 2026, 15:49 UTC

1 65979U 25230F   26257.65945483  .00000153  00000-0  13255-3 0  9992
2 65979  81.3000 128.9322 0003342 342.8403  17.2639 13.81708526 46181

Track SDA_1669 in real time with AllMySat

Download on the App Store